STARLINK-11457, 62919

Orbit data source: Space-Track

STARLINK-11457, 62919 is a payload satellite owned by SpaceX/Seattle (US) in LEO that was launched on Sat, 08 Feb 2025 UTC via an FALCON 9 launch vehicle from the Air Force Eastern Test Range (AFETR). Payload-class satellites include a variety of spacecraft equipped with specific instruments for various scientific and technological missions. These include communications satellites like Starlink; space stations such as the ISS; scientific satellites like the Hubble; Earth observation satellites from companies like Planet Labs, Umbra, and HawkEye 360; GPS; miniature CubeSats for education and research; and military/defense satellites.

Loading next visibility...
Identifier
62919, 2025-027N
Orbit
LEO
Last TLE update
21 hours ago
Origin
Manufacturer
SpaceX/Seattle
Mission
Operational Commercial Communications
Bus & Motor
STARLINK V2M, Unknown motor
Mass
730 kg wet, ~700 kg dry
Launch date (UTC)
2025-02-08 (3 months ago)
Launch vehicle
FALCON 9
Launch site
Air Force Eastern Test Range (AFETR)
Object type
Payload
Rocket body
Debris
Shape & HBR
Box + 2 Pan, 29 m
Radar Cross Section
36.964 m², Large (>1 m²)

Expand to show TLE details & history

TLE from 21 hours ago
0 STARLINK-11457
1 62919U 25027N   25128.41263700  .00000911  00000-0  10598-4 0  9992
2 62919  43.0006  27.4461 0001449 275.7276  84.3426 15.70832134 15120
Epoch: 2025-05-08T09:54Z
Definitive object data (Epoch: 2025-05-08T09:54:11.836Z)
Latitude
-0.00006°
Longitude
12.41322°
Altitude
356.193 km
Speed
7.697 km/s
True Right ascension
01h 49m 47s
True Declination
0° 00' 00"
Sunlit
Object was in daylight at TLE epoch
Visualization TLE readout
Latitude
-42.5625°
Longitude
-71.17811°
Altitude
368.607 km
Speed
7.689 km/s
Apparent Right ascension
23h 37m 35s
Apparent Declination
-54° 14' 35"
Sunlit
Object is in full shadow
Visualization observer readout
Local Sidereal Time
15:04:13
Azimuth
130.381° SE
Elevation
-53.009°
Doppler factor
1
Orbital elements
Apogee altitude
359.475 km
Perigee altitude
357.523 km
Semi-major axis
6,736.636 km
Eccentricity
0.0001449
Inclination
43.0006°
RAAN
27.4461°
Arg. of periapsis
275.7276°
True anomaly
84.35912°
Mean anomaly
84.3426°
Eccentric anomaly
84.35086°
Mean motion
3.92535 °/min
BSTAR
0.000010598
Orbital period
91.71 mins
Loading maneuver chart data...
Loading SW <> Apogee altitude chart data...
Loading historical data...
Loading historical data...
Loading historical data...
Loading historical data...
Loading historical data...
Loading historical data...
Loading historical data...

STARLINK-11457 Visibility forecast

Observer location: undefined°, undefined°

Span
Click to sort rows by Start time (UTC) header in descending order
Start Az.
Max El. time (UTC)
Max El. Az.
Max El.
End time (UTC)
End Az.
4 mins2025-05-09 21:16:18.883Z251.823° W2025-05-09 21:18:18.883Z69.631° E41.415°2025-05-09 21:20:18.883Z71.603° E
4 mins2025-05-10 00:29:18.883Z296.538° NW2025-05-10 00:30:18.883Z342.325° N43.601°2025-05-10 00:33:18.883Z102.347° ESE
|